Location: Grand Rapids
(42.9630°N, 85.6680°W)
Time: 03:32:17
(UTC-04:00)

S-56A Canister/Altair - Pass Details

Date: 05 June 2024
Orbit: 637 x 2489 km, 38.9° (Epoch: 22 June)

Event Time Altitude Azimuth Distance (km) Brightness Sun altitude
Rises 09:24:02 0° 285° (WNW) 6,027 11.6 33.7°
Reaches altitude 10° 09:28:34 10° 279° (W) 4,856 11.2 34.5°
Maximum altitude 09:40:12 39° 218° (SW) 2,558 10.2 36.7°
Drops below altitude 10° 09:48:39 10° 154° (SSE) 3,523 11.4 38.2°
Sets 09:51:25 0° 145° (SE) 4,256 11.8 38.7°
